Theta_e
287 287 286 286 286 286 285 285 285 284 284 284 283 284 284 284 284 283 283 283 283 282 282 282 283 282 283 283 283 282 282 282 282 282 282 282 281 281 281 281 282 281
285 285 285 285 285 285 285 285 284 283 283 283 283 283 283 283 283 282 282 282 282 282 282 282 282 282 282 281 282 281 281 281 280 282 281 281 281 281 281 281 281 281
285 284 284 283 283 283 283 283 283 283 282 282 282 282 282 282 281 281 281 281 281 281 281 281 281 281 281 280 280 280 280 280 280 280 280 280 280 280 281 281 281 281
284 283 283 283 282 282 282 281 281 281 281 281 281 281 281 281 281 280 280 280 280 280 280 280 280 280 280 279 279 279 279 279 279 280 279 280 280 280 280 280 280 280
283 282 282 282 282 282 281 280 280 280 280 280 281 280 280 280 279 279 279 279 279 279 279 279 279 279 279 279 279 278 278 278 279 279 278 278 279 279 279 279 279 279
282 282 282 281 281 280 279 279 279 279 279 279 279 279 279 279 279 278 278 278 278 278 278 278 278 278 278 278 278 278 278 278 278 278 277 277 277 278 279 279 278 278
281 281 280 280 279 279 279 279 279 279 279 279 279 278 278 278 278 278 277 277 277 277 277 277 277 277 277 277 277 276 277 277 276 276 276 276 276 276 277 277 277 277
280 280 280 279 279 279 278 278 278 278 278 278 277 277 277 277 277 277 277 276 276 276 276 276 276 276 276 276 275 275 275 275 275 275 274 274 274 274 275 276 276 275
280 279 279 278 278 278 278 278 278 278 278 277 277 277 277 276 276 276 276 276 276 276 276 275 275 275 275 274 274 273 273 273 273 273 272 272 272 273 273 274 273 273
279 279 278 278 277 278 277 277 277 277 277 276 276 276 275 276 276 275 275 275 274 274 274 274 274 273 273 273 273 272 272 271 272 271 271 271 271 271 271 271 271 271
278 278 277 277 277 277 277 277 277 276 276 276 275 275 275 275 275 275 274 273 273 273 273 272 272 272 272 271 271 271 271 271 271 270 270 270 270 270 271 271 270 270
278 277 277 277 277 277 277 277 276 276 275 275 275 274 274 274 273 273 273 272 272 272 271 271 271 271 271 270 270 271 270 270 270 270 270 270 270 270 270 270 270 270
277 277 277 277 277 277 276 276 275 275 275 274 274 273 272 272 272 271 272 271 271 271 270 270 270 270 270 270 270 270 270 270 270 270 270 270 270 271 271 271 271 271
277 277 277 277 277 276 276 275 275 274 273 273 272 271 271 270 270 270 270 270 270 270 270 270 270 270 270 270 270 270 270 270 270 270 270 270 271 271 271 271 271 272
277 277 277 276 276 275 274 274 273 272 272 271 270 270 270 270 269 269 269 269 269 269 269 270 269 269 270 270 270 270 270 270 271 271 271 271 271 271 271 271 271 272
277 276 275 275 274 273 273 272 272 271 270 269 269 269 268 268 268 268 268 268 268 269 269 269 269 270 271 272 273 271 271 272 272 272 272 271 271 271 271 272 272 272
275 275 274 273 273 273 272 271 270 269 268 268 268 267 267 267 267 267 267 268 268 269 269 269 269 270 272 273 274 275 273 272 272 272 272 272 272 272 271 271 272 273
274 274 273 272 272 271 270 269 268 267 267 266 266 266 266 267 267 267 268 268 268 268 268 269 269 271 272 273 274 275 275 273 273 273 272 272 272 272 272 272 272 272
274 272 272 271 270 269 268 267 266 266 265 265 265 266 266 266 266 267 268 268 268 268 268 268 268 271 272 273 274 275 276 275 273 273 272 272 272 272 272 271 271 271
272 271 270 270 269 268 267 266 265 265 265 266 266 266 266 266 267 267 267 267 267 267 267 267 268 270 272 273 274 275 276 276 273 273 272 272 272 271 271 271 272 271
271 270 269 268 267 266 266 265 265 265 265 266 266 266 266 266 266 266 266 266 266 266 266 266 267 270 272 273 274 275 276 276 273 272 272 271 272 272 272 272 272 272
270 269 268 267 266 265 265 265 265 265 265 266 266 266 267 267 266 267 266 265 266 266 266 265 267 270 272 273 274 275 276 273 272 272 272 272 272 272 273 273 273 273
269 268 267 266 265 264 264 264 265 265 265 266 265 266 266 266 266 266 266 266 265 265 265 265 266 268 271 273 274 275 274 272 272 272 272 271 272 273 273 273 273 273
269 267 266 265 264 264 264 265 265 265 265 266 265 265 265 265 265 265 265 266 265 265 265 265 265 268 272 273 274 275 275 272 272 271 271 272 272 273 273 274 274 276
267 267 266 265 264 264 264 264 264 264 265 265 265 265 265 265 265 265 265 265 265 265 267 267 267 269 271 273 274 275 274 272 272 271 271 271 272 272 273 273 274 274
266 266 265 264 264 264 264 264 264 264 264 264 264 265 265 265 265 265 264 264 265 266 266 267 267 268 269 273 274 274 275 273 272 271 271 271 272 272 272 272 272 272
Wind_Speed
10 8 8 7 7 6 6 6 5 5 5 4 4 4 4 3 3 3 5 6 7 8 8 8 8 8 8 8 8 8 8 9 9 9 10 9 10 11 11 12 12 11
11 10 8 7 7 6 6 6 6 5 5 5 4 4 3 3 4 4 5 6 7 8 8 8 8 9 9 8 8 8 8 9 10 8 9 11 10 11 12 13 13 13
12 11 11 10 9 9 8 7 6 5 5 5 4 4 4 3 4 5 5 6 7 8 8 8 8 8 9 8 8 8 9 9 10 9 10 11 10 11 11 12 11 13
13 12 11 10 9 9 8 7 6 6 5 5 5 4 4 4 4 5 6 8 8 8 8 8 8 8 8 8 8 8 9 10 9 10 10 10 10 10 11 11 12 12
14 12 11 10 9 9 8 8 8 7 7 6 5 5 5 5 6 6 6 6 7 7 7 8 8 8 8 8 8 8 9 9 9 9 10 10 10 10 10 11 12 14
12 11 11 11 10 9 8 8 8 7 7 6 6 5 5 6 6 6 7 7 6 7 8 8 8 8 8 8 8 9 9 9 9 10 11 11 11 10 10 11 13 15
14 13 12 11 10 10 9 8 7 7 6 5 5 6 5 6 6 7 7 7 7 8 8 8 8 8 7 7 8 9 9 10 10 11 12 11 11 13 12 13 14 15
14 12 12 10 11 10 9 8 8 7 6 6 6 6 6 6 7 6 6 7 8 8 9 9 9 8 8 8 8 9 10 8 9 10 11 12 11 13 13 11 12 14
13 12 12 12 12 10 10 9 8 7 7 7 6 6 6 6 6 6 7 7 8 8 8 8 8 8 7 8 8 9 10 10 9 10 11 12 12 13 13 12 14 14
13 12 13 12 11 9 10 9 8 8 7 7 7 5 6 5 6 6 7 7 8 8 8 8 8 8 7 8 9 9 10 11 10 11 11 11 13 13 13 12 13 14
13 12 13 12 11 9 11 10 9 8 7 7 6 6 6 5 5 5 6 7 7 8 7 7 7 7 8 9 9 9 10 10 11 11 11 12 12 13 13 13 13 14
13 12 13 12 11 10 10 9 8 8 7 6 6 6 5 5 5 5 5 6 7 7 7 7 7 7 8 9 9 9 10 10 10 11 11 11 12 12 12 12 12 14
13 12 11 11 11 9 9 8 8 7 7 6 5 5 5 5 5 5 5 6 7 7 7 7 7 8 8 9 9 10 10 10 10 11 11 11 11 13 14 15 17 17
12 11 11 11 10 9 9 8 8 7 6 5 5 5 5 5 5 5 6 6 6 6 7 6 7 8 8 9 9 9 9 9 9 11 13 14 15 15 14 15 16 17
12 11 10 10 10 10 9 8 8 7 6 5 5 4 4 4 4 5 6 7 7 7 7 7 7 7 7 7 7 8 9 10 12 13 13 14 15 15 16 16 16 18
12 10 10 10 10 9 9 9 8 7 6 5 5 5 4 4 5 6 7 7 7 7 7 6 7 6 8 13 13 10 11 10 11 12 13 14 15 16 16 15 17 16
11 10 10 10 10 9 8 8 8 6 6 6 5 5 5 4 5 7 7 7 7 6 6 6 7 6 12 14 15 18 13 12 12 13 13 13 15 14 16 18 17 17
11 10 9 9 9 8 8 8 7 6 6 5 5 5 5 5 6 7 7 6 5 6 6 7 7 10 14 15 16 17 16 13 12 12 12 13 13 14 15 16 17 16
10 10 9 9 9 9 8 7 7 6 6 6 6 5 5 6 7 7 6 6 6 6 6 7 8 11 14 15 16 17 18 16 11 12 13 13 15 15 16 17 16 17
9 9 9 9 9 8 8 7 7 6 6 5 4 5 6 7 7 7 6 6 5 5 6 7 9 11 14 15 16 17 18 16 12 13 13 14 15 16 17 18 19 18
10 9 9 9 9 8 8 7 7 6 6 5 5 5 6 6 6 6 6 5 4 5 5 7 8 13 14 16 16 17 18 17 12 12 13 13 14 17 16 15 17 19
10 10 9 9 9 8 8 7 6 6 6 5 5 5 5 5 5 5 5 5 5 5 6 7 8 13 14 15 16 17 19 12 11 12 11 12 15 15 16 18 17 16
10 10 10 10 9 9 8 7 7 6 5 4 4 5 5 5 5 5 4 4 4 5 6 7 7 11 13 14 15 17 15 11 11 11 12 15 14 15 18 17 17 18
10 10 11 10 9 9 8 7 5 4 4 4 5 5 5 5 5 5 4 4 4 5 6 6 7 10 14 14 16 17 16 11 11 12 13 12 12 16 13 13 17 27
8 9 10 10 10 9 8 8 7 5 4 4 4 4 4 4 5 4 3 3 4 5 9 8 7 8 12 13 16 17 15 11 12 12 12 13 15 14 16 16 15 19
7 8 7 8 9 8 7 7 6 5 5 5 5 4 4 4 4 3 3 3 4 5 5 5 5 5 8 14 15 17 18 13 10 10 12 15 15 16 14 13 17 18
Wind_Direction
176 173 175 176 181 182 185 187 191 193 204 209 219 226 238 249 256 262 270 272 270 272 271 271 274 274 274 272 269 271 272 274 274 272 271 270 269 268 266 262 259 258
175 173 170 172 177 181 182 184 190 193 202 208 217 227 242 253 256 259 263 267 268 266 268 270 272 273 274 273 274 273 274 271 270 269 272 270 269 268 266 265 264 260
172 171 170 175 179 178 176 179 185 196 202 209 215 224 235 241 256 257 258 260 264 267 267 267 268 270 272 273 274 274 272 272 272 272 272 271 271 270 270 272 269 265
172 171 172 177 176 172 173 175 183 192 202 207 212 217 221 231 241 250 256 257 257 261 263 265 268 270 271 271 272 271 271 271 271 274 273 271 269 269 270 269 268 267
170 170 172 172 171 167 170 181 187 195 202 206 208 210 217 228 236 245 247 253 257 265 267 267 269 270 271 271 270 271 273 273 273 271 270 272 271 272 271 269 269 269
170 169 168 168 168 167 178 182 190 195 203 208 211 211 221 226 234 240 250 252 257 263 264 266 265 267 267 267 269 269 272 274 276 275 274 272 274 272 273 272 272 272
168 167 165 165 165 172 177 182 187 194 201 206 206 216 214 224 229 238 244 250 255 257 260 261 263 268 270 269 269 271 271 272 275 274 275 273 273 273 268 271 271 273
166 163 164 163 167 171 177 179 186 190 191 196 210 213 215 226 232 237 242 247 250 255 256 260 263 266 268 269 270 274 274 273 275 278 277 276 276 275 274 270 272 273
161 162 162 166 167 171 178 180 182 185 185 195 203 207 212 218 227 232 239 243 251 253 257 261 264 266 266 267 269 272 275 274 274 275 275 275 274 273 274 276 276 275
163 163 163 166 168 173 176 179 177 180 184 193 199 203 211 217 222 232 238 245 250 253 254 256 258 264 269 269 268 270 272 274 274 272 272 273 273 275 276 276 275 278
163 161 164 167 168 171 174 174 175 176 181 190 192 203 209 216 225 230 240 246 249 253 256 259 263 266 269 268 269 267 268 272 273 271 269 271 272 273 274 274 274 274
162 162 165 167 166 168 169 171 170 176 180 182 191 203 208 220 229 237 239 246 250 255 256 261 264 265 264 266 267 269 268 269 271 273 273 272 272 272 273 273 275 276
162 162 160 162 164 162 162 165 169 173 177 179 183 192 206 220 228 235 243 247 253 255 257 260 262 263 261 264 265 267 269 268 273 276 275 275 276 280 281 282 281 280
157 155 157 157 155 154 157 160 161 163 169 168 175 192 206 220 227 234 241 247 251 255 258 258 260 259 262 264 268 270 272 273 275 281 284 285 282 279 279 278 276 273
149 151 147 145 148 151 152 157 157 158 161 167 177 190 206 216 229 235 244 249 249 250 254 256 256 258 257 260 266 273 275 283 285 283 281 282 283 282 281 277 274 275
145 141 144 142 147 152 154 156 157 157 161 170 181 196 206 219 225 237 242 245 249 250 253 255 256 255 257 262 268 276 283 285 288 286 286 283 284 285 282 278 279 278
139 142 143 148 151 151 151 153 154 155 160 171 182 197 209 218 229 234 234 237 241 250 257 259 261 258 264 268 276 283 288 290 288 288 283 285 286 285 287 288 289 282
141 141 143 147 146 149 149 148 149 151 159 171 184 198 209 214 227 230 234 237 240 247 256 262 266 267 273 278 285 289 291 292 292 292 292 290 288 287 289 291 288 288
140 141 142 144 148 148 145 145 150 156 165 178 193 198 204 218 223 228 231 234 241 247 258 266 268 271 274 282 289 294 296 298 294 291 291 289 290 289 289 288 287 289
137 137 141 142 142 141 145 150 156 166 172 181 185 196 214 223 224 227 232 235 241 256 266 269 271 275 281 289 295 300 303 302 295 294 292 289 285 285 287 289 288 286
137 139 139 141 142 144 148 153 158 164 173 184 189 203 214 219 221 223 228 228 243 250 255 265 267 273 284 295 302 305 306 309 305 299 290 280 283 283 278 274 284 284
140 142 138 140 143 145 148 154 162 169 176 184 195 210 215 222 229 229 230 231 236 245 254 264 270 280 294 300 304 309 313 314 305 296 289 288 287 280 276 279 272 277
147 140 140 142 145 145 151 158 161 170 175 182 198 214 217 222 226 232 232 233 240 245 257 268 277 284 297 306 312 316 318 311 304 297 296 294 287 288 287 280 277 276
145 142 141 143 147 150 151 152 151 159 171 191 199 216 221 220 230 239 237 237 245 252 261 271 278 290 300 309 316 317 318 314 310 308 301 293 290 294 286 290 289 295
132 137 140 144 144 147 147 148 153 160 166 180 215 227 232 232 234 241 239 253 254 254 267 271 275 285 305 315 317 319 319 314 311 305 297 298 300 300 303 297 297 302
121 126 126 129 135 130 134 137 142 152 165 185 209 218 227 235 228 240 249 263 260 251 259 278 288 297 307 314 320 321 321 318 310 304 306 306 308 308 304 305 307 305